sat.trackr.live / text

‹ back to catalog

STARLINK-1973

NORAD 47628 · 2021-012J

PAYLOAD ACTIVE UNKNOWN

§ Identity

Operator
Country
US
Launch date
2021-02-16
Launch site
AFETR
Launch vehicle
Mass (kg)
RCS (m²)

Purposes: comms

External: N2YO · Heavens-Above · Gunter

§ Orbital elements

Epoch: 2026-09-12T07:35:26.042496Z

Period
94.01 min
Inclination
53.1592°
Eccentricity
0.0001231
Mean motion
15.31703172 rev/d
Perigee alt
469.9 km
Apogee alt
471.6 km
Semi-major
6,848.9 km
B*
8.1145e-5
RAAN
276.4796°
Arg perigee
94.5371°
Mean anomaly
265.5771°
Rev number
30,868

§ Raw data

STARLINK-19731 47628U 21012J   26255.31627364  .00002154  00000+0  81145-4 0  99992 47628  53.1592 276.4796 0001231  94.5371 265.5771 15.31703172308689

JSON: /api/v1/satellites/47628 · /tle

For live sub-satellite position, see the globe view (requires WebGL).

§ Visibility from observer

Set your observer location to see the next 7 days of passes ≥ 10°. The values pass through the URL so the page stays shareable.

No JS? Fill the form by hand. The geolocation button needs JavaScript.